Location: Black Forest
(43.4794°N, 75.0081°W)
Time: 20:16:29
(UTC-04:00)

ISS - All Passes

Search period start: 28 August 2015 00:00
Search period end: 07 September 2015 00:00
Orbit: 399 x 401 km, 51.6° (Epoch: 28 August)

Date Brightness Start Highest point End Pass type
(mag) Time Alt. Az. Time Alt. Az. Time Alt. Az.
28 Aug - 11:03:39 10° SW 11:06:52 75° SE 11:10:08 10° ENE daylight
28 Aug - 12:40:44 10° WNW 12:43:32 26° NNW 12:46:20 10° NE daylight
28 Aug - 14:18:14 10° NW 14:20:40 19° N 14:23:08 10° NE daylight
28 Aug - 15:54:35 10° NW 15:57:41 40° NNE 16:00:46 10° E daylight
28 Aug - 17:31:05 10° WNW 17:34:01 31° SW 17:36:55 10° SSE daylight
29 Aug - 10:10:21 10° SSW 10:13:23 38° SE 10:16:26 10° ENE daylight
29 Aug - 11:46:47 10° W 11:49:48 35° NNW 11:52:50 10° NE daylight
29 Aug - 13:24:25 10° NW 13:26:51 19° N 13:29:16 10° NE daylight
29 Aug - 15:01:05 10° NW 15:03:57 28° NNE 15:06:50 10° E daylight
29 Aug - 16:37:19 10° WNW 16:40:33 60° SW 16:43:44 10° SE daylight
30 Aug - 09:17:27 10° S 09:19:55 21° SE 09:22:27 10° E daylight
30 Aug - 10:52:55 10° WSW 10:56:06 54° NNW 10:59:18 10° NE daylight
30 Aug - 12:30:27 10° WNW 12:33:00 20° N 12:35:32 10° NE daylight
30 Aug - 14:07:31 10° NW 14:10:09 22° NNE 14:12:48 10° ENE daylight
30 Aug - 15:43:41 10° NW 15:46:57 74° NNE 15:50:11 10° ESE daylight
30 Aug - 17:21:03 10° W 17:23:00 15° SW 17:24:51 10° SSW daylight
31 Aug - 08:25:39 10° SSE 08:26:29 11° SE 08:27:27 10° ESE daylight
31 Aug - 09:59:11 10° SW 10:02:26 85° SE 10:05:41 10° ENE daylight
31 Aug - 11:36:23 10° WNW 11:39:07 24° NNW 11:41:52 10° NE daylight
31 Aug - 13:13:48 10° NW 13:16:16 20° N 13:18:45 10° NE daylight
31 Aug - 14:50:06 10° NW 14:53:14 43° NNE 14:56:22 10° E daylight
31 Aug - 16:26:42 10° WNW 16:29:31 27° SW 16:32:19 10° SSE daylight
01 Sep - 09:05:43 10° SW 09:08:48 44° SE 09:11:56 10° ENE daylight
01 Sep - 10:42:17 10° W 10:45:16 32° NNW 10:48:15 10° NE daylight
01 Sep - 12:19:55 10° NW 12:22:20 19° N 12:24:45 10° NE daylight
01 Sep - 13:56:30 10° NW 13:59:25 30° NNE 14:02:21 10° E daylight
01 Sep - 15:32:46 10° WNW 15:35:57 52° SW 15:39:06 10° SE daylight
02 Sep - 08:12:36 10° S 08:15:13 23° SE 08:17:54 10° E daylight
02 Sep - 09:48:16 10° WSW 09:51:26 49° NNW 09:54:37 10° NE daylight
02 Sep - 11:25:51 10° WNW 11:28:22 20° N 11:30:52 10° NE daylight
02 Sep - 13:02:49 10° NW 13:05:30 23° NNE 13:08:12 10° ENE daylight
02 Sep - 14:39:00 10° WNW 14:42:15 83° NNE 14:45:30 10° ESE daylight
02 Sep - 16:16:39 10° WSW 16:18:15 13° SW 16:19:46 10° SSW daylight
03 Sep - 07:20:17 10° SSE 07:21:40 12° SE 07:23:10 10° ESE daylight
03 Sep - 08:54:24 10° WSW 08:57:39 86° NNW 09:00:55 10° ENE daylight
03 Sep - 10:31:41 10° WNW 10:34:23 23° NNW 10:37:05 10° NE daylight
03 Sep - 12:09:01 10° NW 12:11:31 20° N 12:14:01 10° ENE daylight
03 Sep - 13:45:17 10° NW 13:48:27 48° NNE 13:51:36 10° ESE daylight
03 Sep - 15:21:58 10° W 15:24:40 24° SW 15:27:21 10° SSE daylight
04 Sep - 08:00:45 10° SW 08:03:54 50° SE 08:07:04 10° ENE daylight
04 Sep - 09:37:28 10° W 09:40:24 30° NNW 09:43:21 10° NE daylight
04 Sep - 11:15:03 10° NW 11:17:28 19° N 11:19:54 10° NE daylight
04 Sep - 12:51:34 10° NW 12:54:32 32° NNE 12:57:30 10° E daylight
04 Sep - 14:27:52 10° WNW 14:31:00 46° SW 14:34:07 10° SE daylight
05 Sep - 07:07:26 10° SSW 07:10:11 26° SE 07:12:59 10° ENE daylight
05 Sep - 08:43:18 10° W 08:46:27 45° NNW 08:49:35 10° NE daylight
05 Sep - 10:20:55 10° NW 10:23:23 20° N 10:25:52 10° NE daylight
05 Sep - 11:57:48 10° NW 12:00:32 24° NNE 12:03:15 10° ENE daylight
05 Sep - 13:33:58 10° WNW 13:37:13 88° SW 13:40:28 10° SE daylight
05 Sep - 15:11:59 10° WSW 15:13:10 11° SW 15:14:14 10° SSW daylight
06 Sep - 06:14:47 10° SSE 06:16:31 14° SE 06:18:20 10° E daylight
06 Sep - 07:49:17 10° WSW 07:52:32 77° NNW 07:55:47 10° NE daylight
06 Sep - 09:26:38 10° WNW 09:29:17 23° NNW 09:31:57 10° NE daylight
06 Sep - 11:03:54 10° NW 11:06:26 20° N 11:08:57 10° ENE daylight
06 Sep - 12:40:08 10° NW 12:43:19 52° NNE 12:46:30 10° ESE daylight
06 Sep - 14:16:55 10° W 14:19:30 21° SW 14:22:02 10° S daylight
